星链-2004 (STARLINK-2004 )

导读 | 豆包AI

STARLINK-2004是美国太空探索技术公司(SpaceX)星链星座的成员,于2021年2月4日发射入轨。星链计划旨在构建全球卫星互联网星座,为全球提供高速低延迟宽带网络服务。该卫星延续星链设计,服役期间承担通信组网任务,截至2026年已在轨运行超5年,服务全球众多用户。

Basic Information
目录编号:
47599
目录名称:
STARLINK-2004
国际标识:
2021-009BD
轨道中心:
EARTH
卫星名称:
星链-2004
卫星全名:
星链-2004 (STARLINK-2004 )
卫星状态:
已陨落 最后检测时间 2024-08-28
发射日期:
2021-02-04 UTC
国别 :
美国 (US)
星等 :
--
Orbit Information
数据来源 国际轨道数据
星历时间: 2024-08-28T15:38:20+0800
轨道信息已过期563天
半长轴: 6556.848km
偏心率: 0.0008987
轨道倾角: 53.026°
近地点辐角 6.372°
升交点赤经 286.770°
平近点角 61.487°
近地点: 172.82km
远地点: 184.606km
周期: 88.065分钟
每日圈数: 16.351596
Detailed Information
固有亮度:
5
最大亮度:
2.5
卫星平台:
Starlink V1.0
覆盖范围:
全球
运营商:
太空探索技术公司
运营商所在国:
美国
制造商(研发单位):
太空探索技术公司
制造商所在国:
美国
使用方式:
暂无
Satellite Introduction
星链(Starlink)计划是由太空探索技术公司(SpaceX)提出的一个巨型低轨卫星互联网星座项目,计划在2019年至2024年间在太空搭建由约1.2万颗卫星组成的“星链”网络,其中1584颗将部署在地球上空550千米处的近地轨道,并从2020年开始工作。该卫星仍在工作。